When you browse on this site, cookies collect data to enhance your experience and personalize the content and advertising you see.
Visit our Privacy Policy to learn more. By continuing to use the site, you agree to this use of cookies and data.
  • Em Portugal
  • Lista de países
  • Para 7 dias
  • Temperatura da água
  • Mapa do tempo
  • Widgets de tempo
  • user-avatar
    Iniciar Sessão

    Previsão horária em Aymazimahi

    Hoje, 17 Setembro, Terça-feira

    Tempo Temperatura Precipitação Vento Pressão Humidade
    00:00 +14°C° 0 mm 1 m/s 650 mmHg 72%
    01:00 +13°C° 0 mm 1 m/s 650 mmHg 73%
    02:00 +13°C° 0 mm 1 m/s 650 mmHg 73%
    03:00 +13°C° 0 mm 1 m/s 649 mmHg 73%
    04:00 +13°C° 0 mm 1 m/s 649 mmHg 74%
    05:00 +13°C° 0 mm 1 m/s 649 mmHg 74%
    06:00 +13°C° 0 mm 1 m/s 649 mmHg 74%
    07:00 +15°C° 0 mm 1 m/s 650 mmHg 68%
    08:00 +18°C° 0 mm 1 m/s 650 mmHg 62%
    09:00 +19°C° 0 mm 2 m/s 651 mmHg 56%
    10:00 +20°C° 0 mm 2 m/s 651 mmHg 55%
    11:00 +20°C° 0 mm 3 m/s 651 mmHg 54%
    12:00 +21°C° 0 mm 3 m/s 651 mmHg 52%
    13:00 +20°C° 0 mm 3 m/s 650 mmHg 54%
    14:00 +20°C° 0 mm 3 m/s 650 mmHg 56%
    15:00 +19°C° 0 mm 3 m/s 650 mmHg 58%
    16:00 +18°C° 0 mm 3 m/s 649 mmHg 66%
    17:00 +16°C° 0 mm 2 m/s 649 mmHg 75%
    18:00 +14°C° 0 mm 1 m/s 649 mmHg 83%
    19:00 +14°C° 0.1 mm 1 m/s 649 mmHg 84%
    20:00 +14°C° 0.1 mm 2 m/s 650 mmHg 84%
    21:00 +14°C° 0.1 mm 2 m/s 650 mmHg 84%
    22:00 +14°C° 0.1 mm 1 m/s 650 mmHg 85%
    23:00 +13°C° 0.1 mm 1 m/s 650 mmHg 85%

    Amanhã, 18 Setembro, Quarta-feira

    Tempo Temperatura Precipitação Vento Pressão Humidade
    00:00 +13°C° 0.1 mm 1 m/s 649 mmHg 85%
    01:00 +13°C° 0 mm 1 m/s 649 mmHg 85%
    02:00 +12°C° 0 mm 1 m/s 650 mmHg 84%
    03:00 +12°C° 0 mm 1 m/s 650 mmHg 84%
    04:00 +12°C° 0 mm 1 m/s 650 mmHg 83%
    05:00 +12°C° 0 mm 1 m/s 650 mmHg 82%
    06:00 +12°C° 0 mm 1 m/s 650 mmHg 81%
    07:00 +14°C° 0 mm 1 m/s 651 mmHg 74%
    08:00 +16°C° 0 mm 2 m/s 652 mmHg 68%
    09:00 +18°C° 0 mm 2 m/s 653 mmHg 61%
    10:00 +18°C° 0 mm 2 m/s 653 mmHg 60%
    11:00 +19°C° 0 mm 3 m/s 654 mmHg 59%
    12:00 +19°C° 0 mm 3 m/s 654 mmHg 58%
    13:00 +19°C° 0 mm 3 m/s 653 mmHg 60%
    14:00 +19°C° 0 mm 3 m/s 653 mmHg 62%
    15:00 +19°C° 0 mm 3 m/s 653 mmHg 64%
    16:00 +17°C° 0 mm 3 m/s 652 mmHg 71%
    17:00 +16°C° 0 mm 2 m/s 652 mmHg 77%
    18:00 +14°C° 0 mm 2 m/s 652 mmHg 84%
    19:00 +14°C° 0 mm 2 m/s 652 mmHg 82%
    20:00 +14°C° 0 mm 2 m/s 652 mmHg 80%
    21:00 +13°C° 0 mm 2 m/s 652 mmHg 78%
    22:00 +13°C° 0 mm 2 m/s 651 mmHg 72%
    23:00 +13°C° 0 mm 2 m/s 651 mmHg 66%

    Depois de amanhã, 19 Setembro, Quinta-feira

    Tempo Temperatura Precipitação Vento Pressão Humidade
    00:00 +13°C° 0 mm 2 m/s 651 mmHg 59%
    01:00 +13°C° 0 mm 2 m/s 651 mmHg 55%
    02:00 +13°C° 0 mm 2 m/s 650 mmHg 51%
    03:00 +13°C° 0 mm 2 m/s 650 mmHg 48%
    04:00 +13°C° 0 mm 2 m/s 650 mmHg 48%
    05:00 +13°C° 0 mm 2 m/s 650 mmHg 48%
    06:00 +13°C° 0 mm 2 m/s 650 mmHg 48%
    07:00 +15°C° 0 mm 2 m/s 652 mmHg 46%
    08:00 +17°C° 0 mm 3 m/s 653 mmHg 45%
    09:00 +19°C° 0 mm 3 m/s 654 mmHg 44%
    10:00 +19°C° 0 mm 4 m/s 654 mmHg 47%
    11:00 +19°C° 0 mm 5 m/s 654 mmHg 50%
    12:00 +19°C° 0 mm 6 m/s 654 mmHg 54%
    13:00 +17°C° 0 mm 5 m/s 654 mmHg 57%
    14:00 +17°C° 0 mm 4 m/s 654 mmHg 60%
    15:00 +15°C° 0 mm 4 m/s 653 mmHg 64%
    16:00 +14°C° 0 mm 3 m/s 653 mmHg 69%
    17:00 +13°C° 0 mm 2 m/s 653 mmHg 74%
    18:00 +12°C° 0 mm 1 m/s 653 mmHg 78%
    19:00 +12°C° 0 mm 1 m/s 653 mmHg 80%
    20:00 +12°C° 0 mm 1 m/s 653 mmHg 82%
    21:00 +11°C° 0 mm 1 m/s 653 mmHg 83%
    22:00 +11°C° 0 mm 1 m/s 653 mmHg 84%
    23:00 +10°C° 0 mm 1 m/s 653 mmHg 85%

    20 Setembro, Sexta-feira

    Tempo Temperatura Precipitação Vento Pressão Humidade
    00:00 +10°C° 0 mm 1 m/s 653 mmHg 85%
    01:00 +10°C° 0 mm 1 m/s 652 mmHg 85%
    02:00 +10°C° 0 mm 1 m/s 652 mmHg 84%
    03:00 +10°C° 0 mm 1 m/s 652 mmHg 83%
    04:00 +10°C° 0 mm 1 m/s 652 mmHg 83%
    05:00 +9°C° 0 mm 1 m/s 651 mmHg 83%
    06:00 +8°C° 0 mm 2 m/s 651 mmHg 83%
    07:00 +10°C° 0 mm 2 m/s 652 mmHg 77%
    08:00 +12°C° 0 mm 3 m/s 652 mmHg 71%
    09:00 +14°C° 0 mm 3 m/s 652 mmHg 65%
    10:00 +16°C° 0 mm 3 m/s 652 mmHg 64%
    11:00 +15°C° 0 mm 4 m/s 652 mmHg 62%
    12:00 +17°C° 0 mm 4 m/s 651 mmHg 61%
    13:00 +17°C° 0 mm 4 m/s 651 mmHg 61%
    14:00 +17°C° 0 mm 4 m/s 651 mmHg 61%
    15:00 +17°C° 0 mm 3 m/s 650 mmHg 61%
    16:00 +16°C° 0 mm 3 m/s 649 mmHg 67%
    17:00 +14°C° 0 mm 2 m/s 648 mmHg 73%
    18:00 +12°C° 0 mm 1 m/s 648 mmHg 79%
    19:00 +12°C° 0 mm 1 m/s 647 mmHg 76%
    20:00 +12°C° 0 mm 1 m/s 647 mmHg 72%
    21:00 +12°C° 0 mm 1 m/s 647 mmHg 69%
    22:00 +12°C° 0 mm 1 m/s 647 mmHg 69%
    23:00 +12°C° 0 mm 1 m/s 647 mmHg 69%

    21 Setembro, Sábado

    Tempo Temperatura Precipitação Vento Pressão Humidade
    00:00 +12°C° 0 mm 2 m/s 647 mmHg 69%
    01:00 +12°C° 0 mm 2 m/s 647 mmHg 73%
    02:00 +10°C° 0 mm 2 m/s 647 mmHg 76%
    03:00 +11°C° 0 mm 1 m/s 646 mmHg 80%
    04:00 +9°C° 0 mm 2 m/s 646 mmHg 82%
    05:00 +9°C° 0 mm 2 m/s 646 mmHg 84%
    06:00 +8°C° 0 mm 2 m/s 646 mmHg 87%
    07:00 +9°C° 0 mm 3 m/s 647 mmHg 83%
    08:00 +10°C° 0 mm 3 m/s 648 mmHg 78%
    09:00 +11°C° 0 mm 3 m/s 648 mmHg 74%
    10:00 +11°C° 0 mm 3 m/s 648 mmHg 73%
    11:00 +10°C° 0 mm 4 m/s 648 mmHg 72%
    12:00 +10°C° 0 mm 4 m/s 648 mmHg 71%
    13:00 +10°C° 0 mm 3 m/s 648 mmHg 72%
    14:00 +9°C° 0 mm 3 m/s 648 mmHg 72%
    15:00 +9°C° 0 mm 3 m/s 648 mmHg 73%
    16:00 +8°C° 0 mm 3 m/s 648 mmHg 76%
    17:00 +7°C° 0 mm 3 m/s 648 mmHg 79%
    18:00 +7°C° 0 mm 3 m/s 648 mmHg 83%
    19:00 +5°C° 0.3 mm 3 m/s 649 mmHg 85%
    20:00 +5°C° 0.3 mm 3 m/s 649 mmHg 87%
    21:00 +4°C° 0.3 mm 3 m/s 649 mmHg 89%
    22:00 +4°C° 1.7 mm 4 m/s 649 mmHg 89%
    23:00 +3°C° 1.7 mm 4 m/s 649 mmHg 88%

    22 Setembro, Domingo

    Tempo Temperatura Precipitação Vento Pressão Humidade
    00:00 +1°C° 1.7 mm 5 m/s 649 mmHg 87%
    01:00 +1°C° 1.2 mm 4 m/s 649 mmHg 86%
    02:00 +2°C° 1.2 mm 3 m/s 650 mmHg 85%
    03:00 +3°C° 1.2 mm 2 m/s 650 mmHg 84%
    04:00 +3°C° 0.1 mm 2 m/s 650 mmHg 83%
    05:00 +3°C° 0.1 mm 2 m/s 650 mmHg 82%
    06:00 +2°C° 0.1 mm 2 m/s 650 mmHg 81%
    07:00 +3°C° 0 mm 2 m/s 651 mmHg 78%
    08:00 +4°C° 0 mm 2 m/s 652 mmHg 75%
    09:00 +6°C° 0 mm 1 m/s 653 mmHg 72%
    10:00 +6°C° 0 mm 2 m/s 653 mmHg 69%
    11:00 +7°C° 0 mm 2 m/s 653 mmHg 67%
    12:00 +7°C° 0 mm 2 m/s 653 mmHg 64%
    13:00 +7°C° 0.1 mm 2 m/s 653 mmHg 67%
    14:00 +7°C° 0.1 mm 1 m/s 652 mmHg 71%
    15:00 +7°C° 0.1 mm 1 m/s 652 mmHg 75%
    16:00 +6°C° 0.2 mm 1 m/s 652 mmHg 78%
    17:00 +5°C° 0.2 mm 2 m/s 653 mmHg 80%
    18:00 +4°C° 0.2 mm 2 m/s 653 mmHg 83%
    19:00 +4°C° 0.3 mm 2 m/s 653 mmHg 84%
    20:00 +4°C° 0.3 mm 2 m/s 654 mmHg 84%
    21:00 +3°C° 0.3 mm 2 m/s 654 mmHg 85%
    22:00 +3°C° 0.2 mm 2 m/s 654 mmHg 85%
    23:00 +2°C° 0.2 mm 2 m/s 654 mmHg 86%
    Mostrar mais